This is the latest recevied weather packets stored in our database for station/object IK2ILW-4. If no packets are shown the sender has not sent any weather packets the latest 10 day(s).
| Time | Temp. | Humidity | Pressure | Rain* | Wind** | Luminosity | Snow |
|---|---|---|---|---|---|---|---|
| 1777707465 | 10° C | 62% | 1026.7 hPa | 0 mm | - | 566 W/m² | - |
| 1777707181 | 9.44° C | 63% | 1026.7 hPa | 0 mm | - | 554 W/m² | - |
| 1777706869 | 9.44° C | 63% | 1026.3 hPa | 0 mm | - | 538 W/m² | - |
| 1777706568 | 8.89° C | 64% | 1026.3 hPa | 0 mm | - | 524 W/m² | - |
| 1777706284 | 8.89° C | 64% | 1026.3 hPa | 0 mm | - | 513 W/m² | - |
| 1777705967 | 8.89° C | 63% | 1026.3 hPa | 0 mm | - | 501 W/m² | - |
| 1777705655 | 9.44° C | 63% | 1026.3 hPa | 0 mm | - | 485 W/m² | - |
| 1777705371 | 9.44° C | 61% | 1026.3 hPa | 0 mm | - | 471 W/m² | - |
| 1777705055 | 9.44° C | 61% | 1026.2 hPa | 0 mm | - | 461 W/m² | - |
| 1777704771 | 9.44° C | 61% | 1026.2 hPa | 0 mm | - | 446 W/m² | - |
| 1777704459 | 9.44° C | 63% | 1026.2 hPa | 0 mm | - | 432 W/m² | - |
| 1777704174 | 9.44° C | 60% | 1026.1 hPa | 0 mm | - | 415 W/m² | - |
| 1777703858 | 9.44° C | 60% | 1026.1 hPa | 0 mm | - | 401 W/m² | - |
| 1777703575 | 9.44° C | 60% | 1026.1 hPa | 0 mm | - | 387 W/m² | - |
| 1777703263 | 9.44° C | 62% | 1025.9 hPa | 0 mm | - | 373 W/m² | - |
| 1777702979 | 9.44° C | 61% | 1025.9 hPa | 0 mm | - | 359 W/m² | - |
| 1777702664 | 8.89° C | 64% | 1025.9 hPa | 0 mm | - | 339 W/m² | - |
| 1777702068 | 8.33° C | 65% | 1026.1 hPa | 0 mm | - | 311 W/m² | - |
| 1777701783 | 8.33° C | 65% | 1026.1 hPa | 0 mm | - | 295 W/m² | - |
| 1777701468 | 7.78° C | 66% | 1026.2 hPa | 0 mm | - | 281 W/m² | - |
| 1777701184 | 7.78° C | 66% | 1026.2 hPa | 0 mm | - | 264 W/m² | - |
| 1777700870 | 7.22° C | 67% | 1026.2 hPa | 0 mm | - | 248 W/m² | - |
| 1777700560 | 6.67° C | 68% | 1026.2 hPa | 0 mm | - | 232 W/m² | - |
| 1777700279 | 6.67° C | 68% | 1026.2 hPa | 0 mm | - | 30 W/m² | - |
| 1777699964 | 6.67° C | 68% | 1026.2 hPa | 0 mm | - | 28 W/m² | - |
* Rain since midnight (hover to see other rain measurements)
** Current wind speed in m/s (hover to see current wind gust speed)